Regional Weather Roundup
Issued by NWS

Home | Current Version | Previous Version | Graphics & Text | Print | Product List | Glossary On
Versions: 1 2 3 4 5 6 7 8 9 10 11 12 13 14 15 16 17 18 19 20 21 22 23 24 25 26 27 28 29 30 31 32 33 34 35 36 37 38 39 40 41 42 43 44 45 46 47 48 49 50
000
ASUS45 KCYS 031010
RWRWY

WYOMING REGIONAL WEATHER ROUNDUP
NATIONAL WEATHER SERVICE CHEYENNE WY
400 AM MDT THU SEP 03 2015

NOTE:  "FAIR" INDICATES FEW OR NO CLOUDS BELOW 12,000 FEET
WITH NO SIGNIFICANT WEATHER AND/OR OBSTRUCTIONS TO VISIBILITY.

WYZ001-031100-
YELLOWSTONE NATIONAL PARK

CITY           SKY/WX    TMP DP  RH WIND       PRES   REMARKS
LK YELLOWSTONE   N/A     50  44  80 CALM      30.12S
W YELLOWSTONE  NOT AVBL

$$
WYZ002>013-054>058-071-098>099-031100-
NORTHERN WYOMING

CITY           SKY/WX    TMP DP  RH WIND       PRES   REMARKS
JACKSON        MOCLDY    48  41  76 CALM      29.99R
CODY           FAIR      68  34  28 S12       29.86S
GREYBULL       FAIR      62  35  36 E5        29.80F
WORLAND        FAIR      63  43  48 CALM      29.82F
SHERIDAN       FAIR      72  34  24 NW15      29.82R
BUFFALO        FAIR      72  36  26 CALM      29.88R
GILLETTE       FAIR      75  35  23 SW17      29.82S
HULETT         FAIR      72  36  26 S6        29.83S
NEWCASTLE      FAIR      72  34  25 MISG      29.87F

$$
WYZ014>020-022>026-101>103-031100-
CENTRAL WYOMING

CITY           SKY/WX    TMP DP  RH WIND       PRES   REMARKS
BIG PINEY      FAIR      47  32  56 E5        30.08S
PINEDALE       FAIR      45  36  70 CALM      30.09S
DUBOIS         FAIR      46  32  57 NW12      30.05S
LANDER         FAIR      68  38  33 SE10      29.92F
RIVERTON       FAIR      69  38  32 S8        29.93F
CASPER         FAIR      59  40  49 CALM      29.96S
DOUGLAS        FAIR      76  40  27 W13G23    29.95R

$$
WYZ021-027>030-104>119-031100-
SOUTHERN WYOMING

CITY           SKY/WX    TMP DP  RH WIND       PRES   REMARKS
EVANSTON       FAIR      60  33  36 SW9G20    30.08S
KEMMERER       FAIR      59  32  36 SW7       30.10S
FORT BRIDGER   SUNNY     64  34  32 SW12      30.11S
ROCK SPRINGS   FAIR      61  38  42 S6        30.07S
DIXON          FAIR      54  44  68 SE3       30.14R
RAWLINS        FAIR      62  37  39 SW8       30.10S
SARATOGA       FAIR      55  43  62 S9        30.14S
LARAMIE        FAIR      51  41  68 VRB6      30.16S
CHEYENNE       FAIR      64  43  46 W12       30.06S
TORRINGTON     FAIR      63  48  58 CALM      29.91S
PINE BLUFFS    FAIR      54  43  66 W6        30.01S

$$


USA.gov is the U.S. government's official web portal to all federal, state and local government web resources and services.